Вернуться в каталог

FENGYUN 1C DEB

АктивенPO
NORAD 37918·DEBRIS·🇨🇳 China

Запущен May 10, 1999 с Taiyuan Satellite Launch Center

Loading…

Ближайшие Пролёты (ближайшие 24 часа)

TLE

СвежийSource: Space-Track

Эпоха: Sep 12, 2026, 20:29 UTC

1 37918U 99025ENT 26255.85373620  .00000819  00000-0  29787-3 0  9991
2 37918  99.0568 223.1759 0054189 200.7876 159.1105 14.35275149 74737

Отслеживайте FENGYUN 1C DEB в реальном времени с AllMySat

Download on the App Store